sat.trackr.live / text

‹ back to catalog

STARLINK-30088

NORAD 57462 · 2023-107F

PAYLOAD ACTIVE UNKNOWN

§ Identity

Operator
Country
US
Launch date
2023-07-28
Launch site
AFETR
Launch vehicle
Mass (kg)
RCS (m²)

Purposes: comms

External: N2YO · Heavens-Above · Gunter

§ Orbital elements

Epoch: 2026-05-25T01:23:59.568576Z

Period
94.27 min
Inclination
42.9966°
Eccentricity
0.0000856
Mean motion
15.27578130 rev/d
Perigee alt
482.5 km
Apogee alt
483.6 km
Semi-major
6,861.2 km
B*
4.0195e-5
RAAN
265.0813°
Arg perigee
94.6952°
Mean anomaly
265.3998°
Rev number
15,682

§ Raw data

STARLINK-300881 57462U 23107F   26145.05832834  .00000844  00000+0  40195-4 0  99962 57462  42.9966 265.0813 0000856  94.6952 265.3998 15.27578130156824

JSON: /api/v1/satellites/57462 · /tle

For live sub-satellite position, see the globe view (requires WebGL).

§ Visibility from observer

Set your observer location to see the next 7 days of passes ≥ 10°. The values pass through the URL so the page stays shareable.

No JS? Fill the form by hand. The geolocation button needs JavaScript.